User: anonymous   Login
Location: Albany
(35.0000°S, 118.0000°E)
Time: 05:01:37
(UTC-05:00)
Language:

SJ-6B - Orbit

View from above orbital plane
View from above orbital plane
View from above satellite
View from above satellite

Ground track
Ground track

The orbit data is extracted from the following two-line orbital elements,

1 28415U 04035C   17350.57057260 +.00000814 +00000-0 +58186-4 0  9995
2 28415 097.7287 020.5051 0051197 220.8701 138.8683 15.06386023726037
Epoch (UTC): 16 December 2017 13:41:37
Eccentricity: 0.0051197
inclination: 97.7287°
perigee height: 512 km
apogee height: 583 km
right ascension of ascending node: 20.5051°
argument of perigee: 220.8701°
revolutions per day: 15.06386023
mean anomaly at epoch: 138.8683°
orbit number at epoch: 72603

The dashed part of the orbit path shows where the satellite is in the earth's shadow,  

DLR